Time,TemperatureF,DewpointF,PressureIn,WindDirection,WindDirectionDegrees,WindSpeedMPH,WindSpeedGustMPH,Humidity,HourlyPrecipIn,Conditions,Clouds,dailyrainin,SoftwareType,DateUTC
2013-03-08 13:14:00,37.8,24.4,30.44,South,190,2.0,6.0,58,0.00,,,0.00,VWS V12.07,2013-03-08 19:14:00,
2013-03-08 13:24:00,37.9,24.5,30.43,SW,227,2.0,8.0,58,0.00,,,0.00,VWS V12.07,2013-03-08 19:24:00,
2013-03-08 13:29:00,38.1,24.6,30.43,NW,311,0.0,8.0,58,0.00,,,0.00,VWS V12.07,2013-03-08 19:29:00,
2013-03-08 13:34:00,38.2,23.9,30.43,WSW,252,0.0,3.0,56,0.00,,,0.00,VWS V12.07,2013-03-08 19:34:00,
2013-03-08 13:39:00,38.4,24.5,30.43,WSW,244,4.0,4.0,57,0.00,,,0.00,VWS V12.07,2013-03-08 19:39:00,
2013-03-08 13:44:00,38.7,24.8,30.43,ESE,117,1.0,7.0,57,0.00,,,0.00,VWS V12.07,2013-03-08 19:44:00,
2013-03-08 13:49:00,38.8,24.9,30.43,SE,126,1.0,7.0,57,0.00,,,0.00,VWS V12.07,2013-03-08 19:49:00,
2013-03-08 13:54:00,38.8,24.0,30.43,ENE,76,1.0,7.0,55,0.00,,,0.00,VWS V12.07,2013-03-08 19:54:00,
2013-03-08 14:04:00,38.7,24.4,30.42,ESE,122,1.0,2.0,56,0.01,,,0.01,VWS V12.07,2013-03-08 20:04:00,
2013-03-08 14:09:00,38.8,24.9,30.42,ENE,74,0.0,8.0,57,0.01,,,0.01,VWS V12.07,2013-03-08 20:09:00,
2013-03-08 14:14:00,38.7,24.8,30.42,North,355,0.0,8.0,57,0.01,,,0.01,VWS V12.07,2013-03-08 20:14:00,
2013-03-08 14:19:00,38.5,24.6,30.41,East,80,1.0,8.0,57,0.01,,,0.01,VWS V12.07,2013-03-08 20:19:00,
2013-03-08 14:24:00,38.4,24.5,30.42,West,261,0.0,8.0,57,0.01,,,0.01,VWS V12.07,2013-03-08 20:24:00,
2013-03-08 14:29:00,38.6,24.7,30.41,WNW,290,1.0,8.0,57,0.01,,,0.01,VWS V12.07,2013-03-08 20:29:00,
2013-03-08 14:39:00,38.8,24.9,30.42,West,272,0.0,3.0,57,0.02,,,0.02,VWS V12.07,2013-03-08 20:39:00,
2013-03-08 14:44:00,38.7,24.4,30.42,ENE,67,0.0,3.0,56,0.02,,,0.02,VWS V12.07,2013-03-08 20:44:00,
2013-03-08 14:49:00,38.8,24.9,30.41,NW,317,0.0,4.0,57,0.02,,,0.02,VWS V12.07,2013-03-08 20:49:00,
2013-03-08 14:54:00,38.8,24.9,30.41,WNW,286,2.0,4.0,57,0.02,,,0.02,VWS V12.07,2013-03-08 20:54:00,
2013-03-08 14:59:00,38.9,24.1,30.41,SSE,157,0.0,5.0,55,0.02,,,0.02,VWS V12.07,2013-03-08 20:59:00,
2013-03-08 15:04:00,38.8,25.3,30.40,WSW,252,0.0,4.0,58,0.02,,,0.03,VWS V12.07,2013-03-08 21:04:00,
2013-03-08 15:09:00,38.7,24.8,30.40,SW,227,1.0,4.0,57,0.02,,,0.03,VWS V12.07,2013-03-08 21:09:00,
2013-03-08 15:19:00,38.7,24.8,30.39,NNE,24,0.0,5.0,57,0.02,,,0.03,VWS V12.07,2013-03-08 21:19:00,
2013-03-08 15:29:00,38.8,24.9,30.39,WNW,288,0.0,6.0,57,0.02,,,0.03,VWS V12.07,2013-03-08 21:29:00,
2013-03-08 15:34:00,38.8,24.0,30.39,WSW,247,2.0,2.0,55,0.02,,,0.03,VWS V12.07,2013-03-08 21:34:00,
2013-03-08 15:39:00,38.9,25.0,30.39,North,5,1.0,4.0,57,0.02,,,0.03,VWS V12.07,2013-03-08 21:39:00,
2013-03-08 15:44:00,38.8,24.9,30.39,NE,36,0.0,4.0,57,0.02,,,0.03,VWS V12.07,2013-03-08 21:44:00,
2013-03-08 15:49:00,38.8,26.1,30.38,ESE,103,0.0,4.0,60,0.03,,,0.04,VWS V12.07,2013-03-08 21:49:00,
2013-03-08 15:54:00,38.7,24.8,30.38,SSW,210,0.0,6.0,57,0.03,,,0.04,VWS V12.07,2013-03-08 21:54:00,
2013-03-08 15:59:00,38.4,26.1,30.38,ENE,69,1.0,6.0,61,0.03,,,0.04,VWS V12.07,2013-03-08 21:59:00,
2013-03-08 16:04:00,38.1,25.5,30.38,North,11,0.0,1.0,60,0.01,,,0.04,VWS V12.07,2013-03-08 22:04:00,
2013-03-08 16:09:00,37.8,25.2,30.38,West,262,0.0,3.0,60,0.01,,,0.04,VWS V12.07,2013-03-08 22:09:00,
2013-03-08 16:14:00,37.6,24.6,30.38,North,5,3.0,3.0,59,0.01,,,0.04,VWS V12.07,2013-03-08 22:14:00,
2013-03-08 16:19:00,37.5,24.9,30.38,WNW,288,0.0,4.0,60,0.02,,,0.05,VWS V12.07,2013-03-08 22:19:00,
2013-03-08 16:24:00,37.4,25.6,30.38,WNW,288,1.0,4.0,62,0.02,,,0.05,VWS V12.07,2013-03-08 22:24:00,
2013-03-08 16:29:00,37.2,25.0,30.38,ESE,118,1.0,5.0,61,0.02,,,0.05,VWS V12.07,2013-03-08 22:29:00,
2013-03-08 16:39:00,37.1,24.5,30.39,SSW,213,0.0,6.0,60,0.02,,,0.05,VWS V12.07,2013-03-08 22:39:00,
2013-03-08 16:44:00,36.9,25.1,30.39,SW,217,1.0,7.0,62,0.02,,,0.05,VWS V12.07,2013-03-08 22:44:00,
2013-03-08 16:49:00,36.6,25.6,30.39,NW,311,0.0,7.0,64,0.02,,,0.05,VWS V12.07,2013-03-08 22:49:00,
2013-03-08 16:54:00,36.4,25.0,30.39,WSW,253,0.0,7.0,63,0.02,,,0.05,VWS V12.07,2013-03-08 22:54:00,
2013-03-08 16:59:00,36.1,24.7,30.39,SSE,149,0.0,7.0,63,0.02,,,0.05,VWS V12.07,2013-03-08 22:59:00,
2013-03-08 17:04:00,35.9,25.3,30.39,NNW,329,1.0,1.0,65,0.01,,,0.05,VWS V12.07,2013-03-08 23:04:00,
2013-03-08 17:09:00,35.7,24.7,30.39,WSW,254,0.0,2.0,64,0.01,,,0.05,VWS V12.07,2013-03-08 23:09:00,
2013-03-08 17:14:00,35.4,24.8,30.39,West,259,0.0,4.0,65,0.01,,,0.05,VWS V12.07,2013-03-08 23:14:00,
2013-03-08 17:24:00,35.0,24.4,30.39,ENE,59,0.0,4.0,65,0.01,,,0.05,VWS V12.07,2013-03-08 23:24:00,
2013-03-08 17:29:00,34.7,24.9,30.39,WSW,257,0.0,4.0,67,0.01,,,0.05,VWS V12.07,2013-03-08 23:29:00,
2013-03-08 17:39:00,34.4,25.0,30.40,SW,221,0.0,2.0,68,0.00,,,0.05,VWS V12.07,2013-03-08 23:39:00,
2013-03-08 17:44:00,34.0,24.6,30.40,SW,221,1.0,2.0,68,0.00,,,0.05,VWS V12.07,2013-03-08 23:44:00,
2013-03-08 17:49:00,33.6,24.5,30.40,SW,221,0.0,2.0,69,0.00,,,0.05,VWS V12.07,2013-03-08 23:49:00,
2013-03-08 17:54:00,33.3,24.9,30.40,SW,221,0.0,2.0,71,0.00,,,0.05,VWS V12.07,2013-03-08 23:54:00,
2013-03-08 17:59:00,32.9,24.2,30.40,North,5,0.0,3.0,70,0.00,,,0.05,VWS V12.07,2013-03-08 23:59:00,
2013-03-08 18:04:00,32.5,24.2,30.39,NW,318,0.0,1.0,71,0.00,,,0.05,VWS V12.07,2013-03-09 00:04:00,
2013-03-08 18:09:00,32.1,23.8,30.39,NW,321,0.0,1.0,71,0.00,,,0.05,VWS V12.07,2013-03-09 00:09:00,
2013-03-08 18:14:00,31.9,23.9,30.39,NW,314,0.0,1.0,72,0.00,,,0.05,VWS V12.07,2013-03-09 00:14:00,
2013-03-08 18:19:00,31.6,23.6,30.39,NW,315,0.0,2.0,72,0.00,,,0.05,VWS V12.07,2013-03-09 00:19:00,
2013-03-08 18:24:00,31.4,23.8,30.39,NW,314,0.0,2.0,73,0.00,,,0.05,VWS V12.07,2013-03-09 00:24:00,
2013-03-08 18:29:00,31.1,23.5,30.39,NW,314,0.0,2.0,73,0.00,,,0.05,VWS V12.07,2013-03-09 00:29:00,
2013-03-08 18:34:00,30.9,23.3,30.39,NW,315,0.0,0.0,73,0.00,,,0.05,VWS V12.07,2013-03-09 00:34:00,
2013-03-08 18:39:00,30.7,23.4,30.39,NW,315,0.0,0.0,74,0.00,,,0.05,VWS V12.07,2013-03-09 00:39:00,
2013-03-08 18:49:00,30.2,23.2,30.39,NW,314,0.0,1.0,75,0.00,,,0.05,VWS V12.07,2013-03-09 00:49:00,
2013-03-08 18:54:00,30.0,23.0,30.39,NW,314,0.0,1.0,75,0.00,,,0.05,VWS V12.07,2013-03-09 00:54:00,
2013-03-08 18:59:00,29.8,22.9,30.39,NW,315,0.0,1.0,75,0.00,,,0.05,VWS V12.07,2013-03-09 00:59:00,
2013-03-08 19:04:00,29.6,23.0,30.39,NW,314,0.0,0.0,76,0.00,,,0.05,VWS V12.07,2013-03-09 01:04:00,
2013-03-08 19:09:00,29.4,22.5,30.39,NW,315,0.0,0.0,75,0.00,,,0.05,VWS V12.07,2013-03-09 01:09:00,
2013-03-08 19:14:00,29.3,22.4,30.39,NW,315,0.0,0.0,75,0.00,,,0.05,VWS V12.07,2013-03-09 01:14:00,
2013-03-08 19:19:00,29.0,22.1,30.39,NW,314,0.0,0.0,75,0.00,,,0.05,VWS V12.07,2013-03-09 01:19:00,
2013-03-08 19:24:00,28.8,22.2,30.39,NW,315,0.0,0.0,76,0.00,,,0.05,VWS V12.07,2013-03-09 01:24:00,
2013-03-08 19:29:00,28.6,22.0,30.39,NW,315,0.0,0.0,76,0.00,,,0.05,VWS V12.07,2013-03-09 01:29:00,
2013-03-08 19:34:00,28.5,22.2,30.38,NW,315,0.0,0.0,77,0.00,,,0.05,VWS V12.07,2013-03-09 01:34:00,
2013-03-08 19:39:00,28.3,21.7,30.38,NW,314,0.0,0.0,76,0.00,,,0.05,VWS V12.07,2013-03-09 01:39:00,
2013-03-08 19:44:00,28.0,21.7,30.38,NW,314,0.0,0.0,77,0.00,,,0.05,VWS V12.07,2013-03-09 01:44:00,
2013-03-08 19:49:00,27.8,21.5,30.38,NW,315,0.0,0.0,77,0.00,,,0.05,VWS V12.07,2013-03-09 01:49:00,
2013-03-08 19:54:00,27.6,21.4,30.38,NW,315,0.0,0.0,77,0.00,,,0.05,VWS V12.07,2013-03-09 01:54:00,
2013-03-08 19:59:00,27.4,21.5,30.38,NW,315,0.0,0.0,78,0.00,,,0.05,VWS V12.07,2013-03-09 01:59:00,
2013-03-08 20:04:00,27.2,21.3,30.38,NW,315,0.0,0.0,78,0.00,,,0.05,VWS V12.07,2013-03-09 02:04:00,
2013-03-08 20:09:00,27.2,21.6,30.38,NW,315,0.0,0.0,79,0.00,,,0.05,VWS V12.07,2013-03-09 02:09:00,
2013-03-08 20:14:00,27.1,21.5,30.38,NW,315,0.0,0.0,79,0.00,,,0.05,VWS V12.07,2013-03-09 02:14:00,
2013-03-08 20:19:00,27.1,21.5,30.38,NW,315,0.0,0.0,79,0.00,,,0.05,VWS V12.07,2013-03-09 02:19:00,
2013-03-08 20:24:00,27.0,21.4,30.38,NW,315,0.0,0.0,79,0.00,,,0.05,VWS V12.07,2013-03-09 02:24:00,
2013-03-08 20:29:00,27.1,21.5,30.38,NW,314,0.0,0.0,79,0.00,,,0.05,VWS V12.07,2013-03-09 02:29:00,
2013-03-08 20:39:00,27.2,21.6,30.37,NW,314,0.0,0.0,79,0.00,,,0.05,VWS V12.07,2013-03-09 02:39:00,
2013-03-08 20:44:00,27.1,21.5,30.37,NW,315,0.0,0.0,79,0.00,,,0.05,VWS V12.07,2013-03-09 02:44:00,
2013-03-08 20:54:00,27.1,21.5,30.37,NW,314,0.0,0.0,79,0.00,,,0.05,VWS V12.07,2013-03-09 02:54:00,
2013-03-08 20:59:00,27.0,21.4,30.37,NW,314,0.0,0.0,79,0.00,,,0.05,VWS V12.07,2013-03-09 02:59:00,
2013-03-08 21:04:00,26.8,21.2,30.36,NW,315,0.0,0.0,79,0.00,,,0.05,VWS V12.07,2013-03-09 03:04:00,
2013-03-08 21:09:00,26.6,21.0,30.36,NW,315,0.0,0.0,79,0.00,,,0.05,VWS V12.07,2013-03-09 03:09:00,
2013-03-08 21:19:00,26.2,20.9,30.36,NW,315,0.0,1.0,80,0.00,,,0.05,VWS V12.07,2013-03-09 03:19:00,
2013-03-08 21:24:00,26.1,20.8,30.36,NW,315,0.0,1.0,80,0.00,,,0.05,VWS V12.07,2013-03-09 03:24:00,
2013-03-08 21:29:00,26.0,20.7,30.36,NW,314,0.0,1.0,80,0.00,,,0.05,VWS V12.07,2013-03-09 03:29:00,
2013-03-08 21:34:00,25.8,20.8,30.35,NW,314,0.0,0.0,81,0.00,,,0.05,VWS V12.07,2013-03-09 03:34:00,
2013-03-08 21:39:00,25.7,20.7,30.35,NW,315,0.0,1.0,81,0.00,,,0.05,VWS V12.07,2013-03-09 03:39:00,
2013-03-08 21:44:00,25.7,21.0,30.35,NW,315,0.0,1.0,82,0.00,,,0.05,VWS V12.07,2013-03-09 03:44:00,
2013-03-08 21:49:00,25.6,20.9,30.35,NW,314,0.0,1.0,82,0.00,,,0.05,VWS V12.07,2013-03-09 03:49:00,
2013-03-08 21:54:00,25.6,20.9,30.35,NW,314,0.0,1.0,82,0.00,,,0.05,VWS V12.07,2013-03-09 03:54:00,
2013-03-08 21:59:00,25.5,21.1,30.35,NW,315,0.0,1.0,83,0.00,,,0.05,VWS V12.07,2013-03-09 03:59:00,
2013-03-08 22:04:00,25.4,21.0,30.35,NW,314,0.0,0.0,83,0.00,,,0.05,VWS V12.07,2013-03-09 04:04:00,
2013-03-08 22:14:00,25.3,20.9,30.35,NW,315,0.0,0.0,83,0.00,,,0.05,VWS V12.07,2013-03-09 04:14:00,
2013-03-08 22:24:00,25.3,21.1,30.35,NW,315,0.0,0.0,84,0.00,,,0.05,VWS V12.07,2013-03-09 04:24:00,
2013-03-08 22:29:00,25.3,21.1,30.34,NW,315,0.0,1.0,84,0.00,,,0.05,VWS V12.07,2013-03-09 04:29:00,
2013-03-08 22:34:00,25.3,21.1,30.34,NW,305,0.0,1.0,84,0.00,,,0.05,VWS V12.07,2013-03-09 04:34:00,
2013-03-08 22:39:00,25.2,21.0,30.34,NW,306,1.0,1.0,84,0.00,,,0.05,VWS V12.07,2013-03-09 04:39:00,
2013-03-08 22:44:00,25.3,21.1,30.34,SSW,202,0.0,1.0,84,0.00,,,0.05,VWS V12.07,2013-03-09 04:44:00,
2013-03-08 22:49:00,25.3,21.1,30.34,SSW,202,0.0,1.0,84,0.00,,,0.05,VWS V12.07,2013-03-09 04:49:00,
2013-03-08 22:59:00,25.3,21.4,30.34,SSW,202,0.0,1.0,85,0.00,,,0.05,VWS V12.07,2013-03-09 04:59:00,
2013-03-08 23:04:00,25.3,21.4,30.34,East,99,0.0,1.0,85,0.00,,,0.05,VWS V12.07,2013-03-09 05:04:00,
2013-03-08 23:09:00,25.3,21.4,30.34,East,99,0.0,1.0,85,0.00,,,0.05,VWS V12.07,2013-03-09 05:09:00,
2013-03-08 23:14:00,25.4,21.5,30.34,East,98,0.0,1.0,85,0.00,,,0.05,VWS V12.07,2013-03-09 05:14:00,
2013-03-08 23:19:00,25.4,21.5,30.33,East,98,0.0,1.0,85,0.00,,,0.05,VWS V12.07,2013-03-09 05:19:00,
2013-03-08 23:24:00,25.5,21.6,30.33,East,97,0.0,1.0,85,0.00,,,0.05,VWS V12.07,2013-03-09 05:24:00,
2013-03-08 23:29:00,25.6,21.7,30.33,East,97,0.0,1.0,85,0.00,,,0.05,VWS V12.07,2013-03-09 05:29:00,
2013-03-08 23:34:00,25.6,21.7,30.33,East,97,0.0,0.0,85,0.00,,,0.05,VWS V12.07,2013-03-09 05:34:00,
2013-03-08 23:39:00,25.7,21.8,30.33,East,96,0.0,1.0,85,0.00,,,0.05,VWS V12.07,2013-03-09 05:39:00,
2013-03-08 23:44:00,25.8,21.9,30.33,East,91,0.0,1.0,85,0.00,,,0.05,VWS V12.07,2013-03-09 05:44:00,
2013-03-08 23:49:00,25.8,21.9,30.33,East,91,1.0,1.0,85,0.00,,,0.05,VWS V12.07,2013-03-09 05:49:00,
2013-03-08 23:59:00,25.9,22.0,30.33,NE,34,1.0,1.0,85,0.00,,,0.05,VWS V12.07,2013-03-09 05:59:00,